Date String (YYYY-MM-DD hh:mm:ss) UTC,Instrument flags,Ambient pressure (hPa),Sample flow (lpm),Bypass flow (lpm),Sample temperature (°C),Ambient temperature (°C),ASC tube jacket temperature (°C),LED temperature (°C),Box temperature (°C),Sample RH (%),Span deviation,Mass concentration (μg/m³),Mass concentration (μg/m³),Mass concentration (μg/m³)
DateTimeUTC,F1_M11,P_M11,Q1_M11,Q2_M11,T1_M11,T2_M11,T3_M11,T4_M11,T5_M11,U1_M11,ZSPAN_M11,X0_M11,X2_M11,X1_M11
2023-05-18 05:00:00,,0831.9,4.99,0.00,29.7,27.2,00.0,38.2,31.2,25.6,0000.0,0010.32,0004.97,0003.96
2023-05-18 05:01:00,,0832.0,5.00,0.00,29.7,27.4,00.0,38.2,31.2,25.8,0000.0,0010.34,0004.94,0003.97
2023-05-18 05:02:00,,0832.0,5.00,0.00,29.7,27.6,00.0,38.1,31.3,25.2,0000.0,0010.51,0004.90,0003.97
2023-05-18 05:03:00,,0832.0,5.00,0.00,29.7,27.7,00.0,38.1,31.3,24.9,0000.0,0010.48,0004.88,0003.97
2023-05-18 05:04:00,,0831.9,5.01,0.00,29.7,27.8,00.0,38.1,31.3,24.9,0000.0,0010.29,0004.84,0003.97
2023-05-18 05:05:00,,0831.9,4.98,0.00,29.7,27.9,00.0,38.1,31.3,24.8,0000.0,0010.08,0004.78,0003.96
2023-05-18 05:06:00,,0831.9,5.01,0.00,29.7,28.0,00.0,38.1,31.3,25.3,0000.0,0009.96,0004.75,0003.95
2023-05-18 05:07:00,,0831.9,5.01,0.00,29.7,28.1,00.0,38.1,31.3,26.0,0000.0,0010.03,0004.77,0003.96
2023-05-18 05:08:00,,0831.9,5.00,0.00,29.8,28.1,00.0,38.1,31.3,26.5,0000.0,0009.87,0004.83,0003.99
2023-05-18 05:09:00,,0831.9,4.98,0.00,29.8,28.2,00.0,38.1,31.4,25.3,0000.0,0008.76,0004.79,0004.00
2023-05-18 05:10:00,,0831.9,5.00,0.00,29.8,28.2,00.0,38.1,31.4,25.2,0000.0,0008.73,0004.78,0004.01
2023-05-18 05:11:00,,0831.9,5.00,0.00,29.8,28.2,00.0,38.1,31.4,25.0,0000.0,0008.75,0004.80,0004.01
2023-05-18 05:12:00,,0831.9,5.01,0.00,29.8,28.3,00.0,38.2,31.4,25.2,0000.0,0008.80,0004.83,0003.99
2023-05-18 05:13:00,,0832.0,4.99,0.00,29.8,28.3,00.0,38.2,31.4,26.1,0000.0,0009.06,0004.97,0004.03
2023-05-18 05:14:00,,0832.0,5.00,0.00,29.8,28.3,00.0,38.2,31.4,26.8,0000.0,0009.48,0005.09,0004.08
2023-05-18 05:15:00,,0832.0,5.01,0.00,29.8,28.3,00.0,38.2,31.4,26.7,0000.0,0009.69,0005.17,0004.11
2023-05-18 05:16:00,,0832.0,5.00,0.00,29.9,28.3,00.0,38.2,31.5,26.7,0000.0,0009.91,0005.27,0004.14
2023-05-18 05:17:00,,0832.0,4.98,0.00,29.9,28.4,00.0,38.2,31.5,26.8,0000.0,0010.17,0005.37,0004.19
2023-05-18 05:18:00,,0832.0,5.01,0.00,29.9,28.4,00.0,38.2,31.5,26.9,0000.0,0010.26,0005.43,0004.20
2023-05-18 05:19:00,,0832.0,5.00,0.00,29.9,28.4,00.0,38.2,31.5,26.7,0000.0,0010.53,0005.47,0004.20
2023-05-18 05:20:00,,0832.0,5.00,0.00,29.9,28.4,00.0,38.2,31.5,26.6,0000.0,0010.68,0005.53,0004.21
2023-05-18 05:21:00,,0832.0,5.00,0.00,29.9,28.4,00.0,38.2,31.5,26.6,0000.0,0010.75,0005.56,0004.22
2023-05-18 05:22:00,,0832.0,4.99,0.00,29.9,28.4,00.0,38.2,31.6,26.5,0000.0,0010.68,0005.54,0004.23
2023-05-18 05:23:00,,0832.0,5.01,0.00,30.0,28.5,00.0,38.3,31.6,26.4,0000.0,0010.51,0005.51,0004.23
2023-05-18 05:24:00,,0832.0,5.00,0.00,30.0,28.5,00.0,38.3,31.6,26.3,0000.0,0010.06,0005.40,0004.20
2023-05-18 05:25:00,,0832.0,5.01,0.00,30.0,28.5,00.0,38.3,31.6,25.9,0000.0,0009.62,0005.28,0004.16
2023-05-18 05:26:00,,0832.0,5.01,0.00,30.0,28.5,00.0,38.3,31.6,25.5,0000.0,0009.52,0005.21,0004.14
2023-05-18 05:27:00,,0832.0,5.00,0.00,30.0,28.5,00.0,38.3,31.6,25.3,0000.0,0009.52,0005.18,0004.11
2023-05-18 05:28:00,,0832.1,5.00,0.00,30.0,28.5,00.0,38.3,31.6,25.4,0000.0,0009.19,0005.06,0004.07
2023-05-18 05:29:00,,0832.0,4.98,0.00,30.0,28.5,00.0,38.3,31.6,25.5,0000.0,0008.94,0004.94,0004.04
2023-05-18 05:30:00,,0832.0,5.01,0.00,30.0,28.5,00.0,38.3,31.6,25.6,0000.0,0008.61,0004.86,0004.01
2023-05-18 05:31:00,,0832.0,5.01,0.00,30.0,28.5,00.0,38.3,31.6,26.1,0000.0,0008.48,0004.81,0004.00
2023-05-18 05:32:00,,0832.0,4.99,0.00,30.0,28.5,00.0,38.3,31.6,26.1,0000.0,0008.42,0004.79,0003.98
2023-05-18 05:33:00,,0831.9,5.01,0.00,30.0,28.5,00.0,38.4,31.6,25.7,0000.0,0008.37,0004.77,0003.98
2023-05-18 05:34:00,,0831.9,5.00,0.00,30.0,28.5,00.0,38.4,31.6,25.5,0000.0,0008.47,0004.80,0004.00
2023-05-18 05:35:00,,0831.8,4.99,0.00,30.0,28.5,00.0,38.4,31.6,25.5,0000.0,0008.51,0004.82,0004.02
2023-05-18 05:36:00,,0832.0,4.99,0.00,30.0,28.5,00.0,38.4,31.6,25.5,0000.0,0008.58,0004.86,0004.03
2023-05-18 05:37:00,,0832.2,5.01,0.00,30.0,28.4,00.0,38.4,31.6,25.5,0000.0,0008.56,0004.88,0004.06
2023-05-18 05:38:00,,0832.2,5.01,0.00,30.0,28.4,00.0,38.4,31.6,25.6,0000.0,0008.54,0004.89,0004.07
2023-05-18 05:39:00,,0831.8,4.99,0.00,30.0,28.4,00.0,38.4,31.5,25.6,0000.0,0008.54,0004.89,0004.07
2023-05-18 05:40:00,,0831.7,4.99,0.00,30.0,28.4,00.0,38.4,31.5,25.5,0000.0,0008.54,0004.91,0004.10
2023-05-18 05:41:00,,0831.7,5.00,0.00,30.0,28.4,00.0,38.4,31.5,25.3,0000.0,0008.60,0004.94,0004.13
2023-05-18 05:42:00,,0831.7,5.00,0.00,30.0,28.4,00.0,38.4,31.5,25.4,0000.0,0008.87,0004.96,0004.14
2023-05-18 05:43:00,,0831.7,5.00,0.00,30.0,28.4,00.0,38.4,31.5,25.6,0000.0,0008.89,0004.95,0004.14
2023-05-18 05:44:00,,0831.7,5.01,0.00,30.0,28.4,00.0,38.4,31.5,25.9,0000.0,0008.85,0004.93,0004.14
2023-05-18 05:45:00,,0831.7,5.00,0.00,30.0,28.4,00.0,38.4,31.5,26.1,0000.0,0008.82,0004.92,0004.13
2023-05-18 05:46:00,,0831.7,5.01,0.00,30.0,28.4,00.0,38.4,31.5,26.1,0000.0,0008.91,0004.95,0004.14
2023-05-18 05:47:00,,0831.7,4.99,0.00,30.0,28.4,00.0,38.4,31.5,26.1,0000.0,0008.90,0004.94,0004.14
2023-05-18 05:48:00,,0831.8,4.98,0.00,29.9,28.3,00.0,38.4,31.5,26.3,0000.0,0008.94,0004.96,0004.14
2023-05-18 05:49:00,,0831.7,5.01,0.00,29.9,28.3,00.0,38.4,31.5,26.2,0000.0,0008.84,0004.92,0004.14
2023-05-18 05:50:00,,0831.8,5.00,0.00,29.9,28.3,00.0,38.4,31.5,26.2,0000.0,0008.85,0004.93,0004.15
2023-05-18 05:51:00,,0831.7,4.98,0.00,29.9,28.3,00.0,38.4,31.5,26.4,0000.0,0009.00,0004.99,0004.16
2023-05-18 05:52:00,,0832.1,5.00,0.00,29.9,28.3,00.0,38.4,31.5,26.6,0000.0,0009.03,0005.03,0004.16
2023-05-18 05:53:00,,0832.2,5.01,0.00,29.9,28.3,00.0,38.4,31.4,26.9,0000.0,0008.82,0005.02,0004.16
2023-05-18 05:54:00,,0832.0,4.99,0.00,29.9,28.2,00.0,38.3,31.4,27.2,0000.0,0008.74,0005.04,0004.16
2023-05-18 05:55:00,,0831.8,5.00,0.00,29.9,28.2,00.0,38.3,31.4,27.4,0000.0,0009.07,0005.04,0004.17
2023-05-18 05:56:00,,0831.8,5.00,0.00,29.9,28.2,00.0,38.3,31.4,27.5,0000.0,0009.05,0005.03,0004.16
2023-05-18 05:57:00,,0831.8,5.01,0.00,29.9,28.2,00.0,38.3,31.4,27.6,0000.0,0008.88,0004.97,0004.15
2023-05-18 05:58:00,,0831.8,5.00,0.00,29.9,28.2,00.0,38.3,31.4,27.7,0000.0,0008.84,0004.96,0004.16
2023-05-18 05:59:00,,0831.8,4.99,0.00,29.8,28.2,00.0,38.3,31.4,27.8,0000.0,0008.75,0004.94,0004.16
